Flag for Norway Weather past 2 weeks in Skien, Norway

Now
52 °F

Drizzle. Fog.


Feels Like: 49 °F
Forecast: 44 / 60 °F
Wind: 7 mph from Southeast

Location: Skien-Geiteryggen

Current Time: Oct 1, 2014 at 5:10:06 PM

Latest Report: Oct 1, 2014 at 4:20 PM


Visibility: 2 mi

Pressure: 30.24 "Hg

Humidity: 100%

Dew point: 52 °F

Location of SkienLocation

Historic Weather in Skien — Graph

°F

Skien temperature yesterday

Maximum temperature yesterday: 61 °F (at 3:50 PM)
Minimum temperature yesterday: 43 °F (at 6:20 AM)
Average temperature yesterday: 52 °F

Past Weeks' High & Low Weather Summary

 TemperatureHumidityPressure
High66 °F (Sep 19, 2:50 PM)100% (Sep 17, 5:50 AM)30.33 "Hg (Sep 17, 5:50 AM)
Low41 °F (Sep 23, 6:20 AM)35% (Sep 22, 12:50 PM)29.53 "Hg (Sep 26, 12:50 PM)
Average55 °F70%30.01 "Hg
* Reported Sep 16 3:50 PM — Oct 1 3:50 PM, Skien, Weather by CustomWeather, © 2014

Note: Actual official high and low records may vary slightly from our data, if they occured in-between our weather recording intervals... More about our weather records

Advertising

Skien weather history for previous 24 hours

 ConditionsComfort  
Time TempWeatherWind HumidityBarometerVisibility
3:50 PM
Oct 1
52 °FDrizzle. Fog.3 mph94%30.24 "Hg2 mi
3:20 PM52 °FLight rain. Fog.5 mph94%30.27 "Hg2 mi
2:50 PM52 °FLight rain. Low clouds.5 mph94%30.27 "Hg6 mi
1:50 PM52 °FLow clouds.7 mph88%30.30 "Hg6 mi
12:50 PM52 °FScattered showers. Partly sunny.7 mph88%30.30 "Hg6 mi
11:50 AM52 °FScattered showers. Partly sunny.8 mph82%30.30 "Hg6 mi
10:50 AM52 °FScattered showers. Partly sunny.7 mph82%30.30 "HgN/A
10:20 AM50 °FPartly sunny.6 mph88%30.30 "HgN/A
8:50 AM50 °FDrizzle. Partly sunny.6 mph88%30.30 "HgN/A
7:50 AM48 °FPassing clouds.7 mph94%30.30 "HgN/A
6:50 AM48 °FPassing clouds.5 mph87%30.33 "HgN/A
6:20 AM48 °FPassing clouds.5 mph87%30.33 "HgN/A
5:50 AM48 °FPassing clouds.5 mph87%30.33 "HgN/A
7:50 PM
Sep 30
54 °FSunny.6 mph77%30.33 "Hg10 mi
6:50 PM55 °FSunny.6 mph67%30.33 "Hg10 mi
5:50 PM57 °FSunny.5 mph63%30.33 "Hg10 mi
Weather by CustomWeather, © 2014

See weather overviewHow to use our weather pages